Terminal Aerodrome Forecast
Issued by NWS

Home | Current Version | Previous Version | Text Only | Print | Product List | Glossary On
Versions: 1 2 3 4 5 6 7 8 9 10 11 12 13 14 15 16 17 18 19 20 21 22 23 24 25 26 27
000
FTUS46 KMTR 312100 AAA
TAFSFO
TAF AMD
KSFO 312109Z 3121/0124 30018KT P6SM FEW008 SCT180
     FM010400 29012KT P6SM FEW200
     FM010700 30008KT P6SM FEW010
     FM012100 30020KT P6SM SKC=

USA.gov is the U.S. government's official web portal to all federal, state and local government web resources and services.